Year,Month,Day,Hour,Minute,Value (Times are PST for temperature in C)
2008,09,30,00,00,10.30
2008,09,30,00,01,10.30
2008,09,30,00,02,10.30
2008,09,30,00,03,10.30
2008,09,30,00,04,10.30
2008,09,30,00,05,10.30
2008,09,30,00,06,10.30
2008,09,30,00,07,10.20
2008,09,30,00,08,10.20
2008,09,30,00,09,10.20
2008,09,30,00,10,10.20
2008,09,30,00,11,10.20
2008,09,30,00,12,10.20
2008,09,30,00,13,10.20
2008,09,30,00,14,10.20
2008,09,30,00,15,10.20
2008,09,30,00,16,10.20
2008,09,30,00,17,10.20
2008,09,30,00,18,10.20
2008,09,30,00,19,10.20
2008,09,30,00,20,10.20
2008,09,30,00,21,10.20
2008,09,30,00,22,10.20
2008,09,30,00,23,10.20
2008,09,30,00,24,10.20
2008,09,30,00,25,10.20
2008,09,30,00,26,10.30
2008,09,30,00,27,10.30
2008,09,30,00,28,10.40
2008,09,30,00,29,10.40
2008,09,30,00,30,10.40
2008,09,30,00,31,10.50
2008,09,30,00,32,10.60
2008,09,30,00,33,10.70
2008,09,30,00,34,10.80
2008,09,30,00,35,10.90
2008,09,30,00,36,11.00
2008,09,30,00,37,11.10
2008,09,30,00,38,11.20
2008,09,30,00,39,11.20
2008,09,30,00,40,11.10
2008,09,30,00,41,11.00
2008,09,30,00,42,10.90
2008,09,30,00,43,10.80
2008,09,30,00,44,10.70
2008,09,30,00,45,10.60
2008,09,30,00,46,10.60
2008,09,30,00,47,10.50
2008,09,30,00,48,10.40
2008,09,30,00,49,10.40
2008,09,30,00,50,10.40
2008,09,30,00,51,10.30
2008,09,30,00,52,10.30
2008,09,30,00,53,10.20
2008,09,30,00,54,10.10
2008,09,30,00,55,10.10
2008,09,30,00,56,10.00
2008,09,30,00,57,9.90
2008,09,30,00,58,9.90
2008,09,30,00,59,9.80
2008,09,30,01,00,9.80
2008,09,30,01,01,9.80
2008,09,30,01,02,9.80
2008,09,30,01,03,9.90
2008,09,30,01,04,9.90
2008,09,30,01,05,9.90
2008,09,30,01,06,9.90
2008,09,30,01,07,9.90
2008,09,30,01,08,9.90
2008,09,30,01,09,9.90
2008,09,30,01,10,10.10
2008,09,30,01,11,10.40
2008,09,30,01,12,10.60
2008,09,30,01,13,10.90
2008,09,30,01,14,11.20
2008,09,30,01,15,11.40
2008,09,30,01,16,11.50
2008,09,30,01,17,11.60
2008,09,30,01,18,11.70
2008,09,30,01,19,11.80
2008,09,30,01,20,11.90
2008,09,30,01,21,12.00
2008,09,30,01,22,12.10
2008,09,30,01,23,12.10
2008,09,30,01,24,12.20
2008,09,30,01,25,12.30
2008,09,30,01,26,12.30
2008,09,30,01,27,12.40
2008,09,30,01,28,12.50
2008,09,30,01,29,12.60
2008,09,30,01,30,12.60
2008,09,30,01,31,12.70
2008,09,30,01,32,12.80
2008,09,30,01,33,12.80
2008,09,30,01,34,12.70
2008,09,30,01,35,12.50
2008,09,30,01,36,12.40
2008,09,30,01,37,12.20
2008,09,30,01,38,12.00
2008,09,30,01,39,11.80
2008,09,30,01,40,11.80
2008,09,30,01,41,11.80
2008,09,30,01,42,11.80
2008,09,30,01,43,11.70
2008,09,30,01,44,11.70
2008,09,30,01,45,11.60
2008,09,30,01,46,11.60
2008,09,30,01,47,11.60
2008,09,30,01,48,11.60
2008,09,30,01,49,11.40
2008,09,30,01,50,11.40
2008,09,30,01,51,11.40
2008,09,30,01,52,11.60
2008,09,30,01,53,11.60
2008,09,30,01,54,11.60
2008,09,30,01,55,11.70
2008,09,30,01,56,11.80
2008,09,30,01,57,11.80
2008,09,30,01,58,11.80
2008,09,30,01,59,11.80
2008,09,30,02,00,11.80
2008,09,30,02,01,11.90
2008,09,30,02,02,11.90
2008,09,30,02,03,11.80
2008,09,30,02,04,11.80
2008,09,30,02,05,11.80
2008,09,30,02,06,11.70
2008,09,30,02,07,11.60
2008,09,30,02,08,11.60
2008,09,30,02,09,11.60
2008,09,30,02,10,11.60
2008,09,30,02,11,11.60
2008,09,30,02,12,11.60
2008,09,30,02,13,11.60
2008,09,30,02,14,11.60
2008,09,30,02,15,11.60
2008,09,30,02,16,11.60
2008,09,30,02,17,11.60
2008,09,30,02,18,11.60
2008,09,30,02,19,11.60
2008,09,30,02,20,11.60
2008,09,30,02,21,11.60
2008,09,30,02,22,11.60
2008,09,30,02,23,11.60
2008,09,30,02,24,11.60
2008,09,30,02,25,11.60
2008,09,30,02,26,11.60
2008,09,30,02,27,11.60
2008,09,30,02,28,11.60
2008,09,30,02,29,11.50
2008,09,30,02,30,11.40
2008,09,30,02,31,11.40
2008,09,30,02,32,11.40
2008,09,30,02,33,11.50
2008,09,30,02,34,11.60
2008,09,30,02,35,11.60
2008,09,30,02,36,11.60
2008,09,30,02,37,11.60
2008,09,30,02,38,11.60
2008,09,30,02,39,11.60
2008,09,30,02,40,11.60
2008,09,30,02,41,11.60
2008,09,30,02,42,11.60
2008,09,30,02,43,11.60
2008,09,30,02,44,11.70
2008,09,30,02,45,11.70
2008,09,30,02,46,11.70
2008,09,30,02,47,11.70
2008,09,30,02,48,11.70
2008,09,30,02,49,11.60
2008,09,30,02,50,11.60
2008,09,30,02,51,11.60
2008,09,30,02,52,11.70
2008,09,30,02,53,11.80
2008,09,30,02,54,11.80
2008,09,30,02,55,11.80
2008,09,30,02,56,11.70
2008,09,30,02,57,11.60
2008,09,30,02,58,11.60
2008,09,30,02,59,11.40
2008,09,30,03,00,11.40
2008,09,30,03,01,11.40
2008,09,30,03,02,11.40
2008,09,30,03,03,11.30
2008,09,30,03,04,11.30
2008,09,30,03,05,11.20
2008,09,30,03,06,11.20
2008,09,30,03,07,11.20
2008,09,30,03,08,11.10
2008,09,30,03,09,11.10
2008,09,30,03,10,11.10
2008,09,30,03,11,11.10
2008,09,30,03,12,11.10
2008,09,30,03,13,11.10
2008,09,30,03,14,11.10
2008,09,30,03,15,11.00
2008,09,30,03,16,10.90
2008,09,30,03,17,10.90
2008,09,30,03,18,10.90
2008,09,30,03,19,10.90
2008,09,30,03,20,10.90
2008,09,30,03,21,10.90
2008,09,30,03,22,10.90
2008,09,30,03,23,10.90
2008,09,30,03,24,10.90
2008,09,30,03,25,10.90
2008,09,30,03,26,10.90
2008,09,30,03,27,10.90
2008,09,30,03,28,10.90
2008,09,30,03,29,10.90
2008,09,30,03,30,10.90
2008,09,30,03,31,10.90
2008,09,30,03,32,10.90
2008,09,30,03,33,10.90
2008,09,30,03,34,10.90
2008,09,30,03,35,10.90
2008,09,30,03,36,10.90
2008,09,30,03,37,10.90
2008,09,30,03,38,10.90
2008,09,30,03,39,11.10
2008,09,30,03,40,11.10
2008,09,30,03,41,11.10
2008,09,30,03,42,11.10
2008,09,30,03,43,11.10
2008,09,30,03,44,11.10
2008,09,30,03,45,11.10
2008,09,30,03,46,11.10
2008,09,30,03,47,11.10
2008,09,30,03,48,11.10
2008,09,30,03,49,11.00
2008,09,30,03,50,10.90
2008,09,30,03,51,10.90
2008,09,30,03,52,10.90
2008,09,30,03,53,10.90
2008,09,30,03,54,10.90
2008,09,30,03,55,10.90
2008,09,30,03,56,10.70
2008,09,30,03,57,10.60
2008,09,30,03,58,10.50
2008,09,30,03,59,10.40
2008,09,30,04,00,10.40
2008,09,30,04,01,10.30
2008,09,30,04,02,10.30
2008,09,30,04,03,10.30
2008,09,30,04,04,10.20
2008,09,30,04,05,10.20
2008,09,30,04,06,10.20
2008,09,30,04,07,10.20
2008,09,30,04,08,10.10
2008,09,30,04,09,10.10
2008,09,30,04,10,9.90
2008,09,30,04,11,9.90
2008,09,30,04,12,9.80
2008,09,30,04,13,9.70
2008,09,30,04,14,9.70
2008,09,30,04,15,9.70
2008,09,30,04,16,9.70
2008,09,30,04,17,9.70
2008,09,30,04,18,9.60
2008,09,30,04,19,9.60
2008,09,30,04,20,9.60
2008,09,30,04,21,9.60
2008,09,30,04,22,9.60
2008,09,30,04,23,9.60
2008,09,30,04,24,9.60
2008,09,30,04,25,9.60
2008,09,30,04,26,9.60
2008,09,30,04,27,9.60
2008,09,30,04,28,9.60
2008,09,30,04,29,9.60
2008,09,30,04,30,9.60
2008,09,30,04,31,9.70
2008,09,30,04,32,9.70
2008,09,30,04,33,9.70
2008,09,30,04,34,9.70
2008,09,30,04,35,9.70
2008,09,30,04,36,9.70
2008,09,30,04,37,9.70
2008,09,30,04,38,9.70
2008,09,30,04,39,9.70
2008,09,30,04,40,9.80
2008,09,30,04,41,9.80
2008,09,30,04,42,9.80
2008,09,30,04,43,9.80
2008,09,30,04,44,9.70
2008,09,30,04,45,9.70
2008,09,30,04,46,9.70
2008,09,30,04,47,9.70
2008,09,30,04,48,9.70
2008,09,30,04,49,9.70
2008,09,30,04,50,9.60
2008,09,30,04,51,9.60
2008,09,30,04,52,9.60
2008,09,30,04,53,9.60
2008,09,30,04,54,9.60
2008,09,30,04,55,9.60
2008,09,30,04,56,9.60
2008,09,30,04,57,9.60
2008,09,30,04,58,9.60
2008,09,30,04,59,9.60
2008,09,30,05,00,9.60
2008,09,30,05,01,9.50
2008,09,30,05,02,9.50
2008,09,30,05,03,9.50
2008,09,30,05,04,9.50
2008,09,30,05,05,9.50
2008,09,30,05,06,9.50
2008,09,30,05,07,9.50
2008,09,30,05,08,9.50
2008,09,30,05,09,9.50
2008,09,30,05,10,9.40
2008,09,30,05,11,9.40
2008,09,30,05,12,9.40
2008,09,30,05,13,9.40
2008,09,30,05,14,9.40
2008,09,30,05,15,9.40
2008,09,30,05,16,9.40
2008,09,30,05,17,9.30
2008,09,30,05,18,9.30
2008,09,30,05,19,9.30
2008,09,30,05,20,9.20
2008,09,30,05,21,9.20
2008,09,30,05,22,9.20
2008,09,30,05,23,9.20
2008,09,30,05,24,9.20
2008,09,30,05,25,9.20
2008,09,30,05,26,9.10
2008,09,30,05,27,9.10
2008,09,30,05,28,9.10
2008,09,30,05,29,9.10
2008,09,30,05,30,9.10
2008,09,30,05,31,9.10
2008,09,30,05,32,9.00
2008,09,30,05,33,9.00
2008,09,30,05,34,9.00
2008,09,30,05,35,9.00
2008,09,30,05,36,8.90
2008,09,30,05,37,8.90
2008,09,30,05,38,8.90
2008,09,30,05,39,8.80
2008,09,30,05,40,8.80
2008,09,30,05,41,8.90
2008,09,30,05,42,8.90
2008,09,30,05,43,8.90
2008,09,30,05,44,8.90
2008,09,30,05,45,8.90
2008,09,30,05,46,8.90
2008,09,30,05,47,8.90
2008,09,30,05,48,8.80
2008,09,30,05,49,8.80
2008,09,30,05,50,8.80
2008,09,30,05,51,8.80
2008,09,30,05,52,8.70
2008,09,30,05,53,8.70
2008,09,30,05,54,8.70
2008,09,30,05,55,8.70
2008,09,30,05,56,8.70
2008,09,30,05,57,8.70
2008,09,30,05,58,8.60
2008,09,30,05,59,8.60
2008,09,30,06,00,8.60
2008,09,30,06,01,8.50
2008,09,30,06,02,8.50
2008,09,30,06,03,8.50
2008,09,30,06,04,8.50
2008,09,30,06,05,8.50
2008,09,30,06,06,8.40
2008,09,30,06,07,8.40
2008,09,30,06,08,8.40
2008,09,30,06,09,8.50
2008,09,30,06,10,8.50
2008,09,30,06,11,8.60
2008,09,30,06,12,8.70
2008,09,30,06,13,8.70
2008,09,30,06,14,8.70
2008,09,30,06,15,8.70
2008,09,30,06,16,8.80
2008,09,30,06,17,8.80
2008,09,30,06,18,8.80
2008,09,30,06,19,8.90
2008,09,30,06,20,8.90
2008,09,30,06,21,8.90
2008,09,30,06,22,9.00
2008,09,30,06,23,9.00
2008,09,30,06,24,9.00
2008,09,30,06,25,9.10
2008,09,30,06,26,9.10
2008,09,30,06,27,9.10
2008,09,30,06,28,9.20
2008,09,30,06,29,9.20
2008,09,30,06,30,9.20
2008,09,30,06,31,9.20
2008,09,30,06,32,9.20
2008,09,30,06,33,9.10
2008,09,30,06,34,9.10
2008,09,30,06,35,9.00
2008,09,30,06,36,9.00
2008,09,30,06,37,9.00
2008,09,30,06,38,8.90
2008,09,30,06,39,8.90
2008,09,30,06,40,8.90
2008,09,30,06,41,8.80
2008,09,30,06,42,8.80
2008,09,30,06,43,8.80
2008,09,30,06,44,8.80
2008,09,30,06,45,8.70
2008,09,30,06,46,8.70
2008,09,30,06,47,8.70
2008,09,30,06,48,8.70
2008,09,30,06,49,8.70
2008,09,30,06,50,8.70
2008,09,30,06,51,8.70
2008,09,30,06,52,8.70
2008,09,30,06,53,8.70
2008,09,30,06,54,8.70
2008,09,30,06,55,8.60
2008,09,30,06,56,8.60
2008,09,30,06,57,8.50
2008,09,30,06,58,8.50
2008,09,30,06,59,8.40
2008,09,30,07,00,8.40
2008,09,30,07,01,8.30
2008,09,30,07,02,8.30
2008,09,30,07,03,8.30
2008,09,30,07,04,8.20
2008,09,30,07,05,8.20
2008,09,30,07,06,8.20
2008,09,30,07,07,8.20
2008,09,30,07,08,8.20
2008,09,30,07,09,8.20
2008,09,30,07,10,8.10
2008,09,30,07,11,8.10
2008,09,30,07,12,8.00
2008,09,30,07,13,7.90
2008,09,30,07,14,7.90
2008,09,30,07,15,7.90
2008,09,30,07,16,7.80
2008,09,30,07,17,7.80
2008,09,30,07,18,7.90
2008,09,30,07,19,7.90
2008,09,30,07,20,7.90
2008,09,30,07,21,7.90
2008,09,30,07,22,8.00
2008,09,30,07,23,8.00
2008,09,30,07,24,8.00
2008,09,30,07,25,8.00
2008,09,30,07,26,8.00
2008,09,30,07,27,8.00
2008,09,30,07,28,8.10
2008,09,30,07,29,8.20
2008,09,30,07,30,8.30
2008,09,30,07,31,8.40
2008,09,30,07,32,8.40
2008,09,30,07,33,8.50
2008,09,30,07,34,8.50
2008,09,30,07,35,8.60
2008,09,30,07,36,8.60
2008,09,30,07,37,8.60
2008,09,30,07,38,8.60
2008,09,30,07,39,8.60
2008,09,30,07,40,8.60
2008,09,30,07,41,8.60
2008,09,30,07,42,8.60
2008,09,30,07,43,8.60
2008,09,30,07,44,8.70
2008,09,30,07,45,8.70
2008,09,30,07,46,8.80
2008,09,30,07,47,8.80
2008,09,30,07,48,8.90
2008,09,30,07,49,9.00
2008,09,30,07,50,9.10
2008,09,30,07,51,9.20
2008,09,30,07,52,9.30
2008,09,30,07,53,9.30
2008,09,30,07,54,9.40
2008,09,30,07,55,9.50
2008,09,30,07,56,9.60
2008,09,30,07,57,9.60
2008,09,30,07,58,9.70
2008,09,30,07,59,9.70
2008,09,30,08,00,9.70
2008,09,30,08,01,9.60
2008,09,30,08,02,9.60
2008,09,30,08,03,9.60
2008,09,30,08,04,9.70
2008,09,30,08,05,9.70
2008,09,30,08,06,9.70
2008,09,30,08,07,9.80
2008,09,30,08,08,9.80
2008,09,30,08,09,9.80
2008,09,30,08,10,9.90
2008,09,30,08,11,9.90
2008,09,30,08,12,9.90
2008,09,30,08,13,9.90
2008,09,30,08,14,9.90
2008,09,30,08,15,9.90
2008,09,30,08,16,10.10
2008,09,30,08,17,10.20
2008,09,30,08,18,10.30
2008,09,30,08,19,10.30
2008,09,30,08,20,10.40
2008,09,30,08,21,10.50
2008,09,30,08,22,10.60
2008,09,30,08,23,10.60
2008,09,30,08,24,10.60
2008,09,30,08,25,10.60
2008,09,30,08,26,10.60
2008,09,30,08,27,10.60
2008,09,30,08,28,10.60
2008,09,30,08,29,10.60
2008,09,30,08,30,10.50
2008,09,30,08,31,10.40
2008,09,30,08,32,10.40
2008,09,30,08,33,10.30
2008,09,30,08,34,10.30
2008,09,30,08,35,10.30
2008,09,30,08,36,10.30
2008,09,30,08,37,10.40
2008,09,30,08,38,10.40
2008,09,30,08,39,10.40
2008,09,30,08,40,10.40
2008,09,30,08,41,10.60
2008,09,30,08,42,10.60
2008,09,30,08,43,10.60
2008,09,30,08,44,10.70
2008,09,30,08,45,10.80
2008,09,30,08,46,10.80
2008,09,30,08,47,10.90
2008,09,30,08,48,11.00
2008,09,30,08,49,11.10
2008,09,30,08,50,11.10
2008,09,30,08,51,11.20
2008,09,30,08,52,11.30
2008,09,30,08,53,11.30
2008,09,30,08,54,11.40
2008,09,30,08,55,11.40
2008,09,30,08,56,11.60
2008,09,30,08,57,11.60
2008,09,30,08,58,11.70
2008,09,30,08,59,11.80
2008,09,30,09,00,11.80
2008,09,30,09,01,11.90
2008,09,30,09,02,12.00
2008,09,30,09,03,12.10
2008,09,30,09,04,12.20
2008,09,30,09,05,12.30
2008,09,30,09,06,12.30
2008,09,30,09,07,12.40
2008,09,30,09,08,12.50
2008,09,30,09,09,12.60
2008,09,30,09,10,12.70
2008,09,30,09,11,12.80
2008,09,30,09,12,12.80
2008,09,30,09,13,13.00
2008,09,30,09,14,13.10
2008,09,30,09,15,13.10
2008,09,30,09,16,13.30
2008,09,30,09,17,13.30
2008,09,30,09,18,13.50
2008,09,30,09,19,13.50
2008,09,30,09,20,13.60
2008,09,30,09,21,13.70
2008,09,30,09,22,13.70
2008,09,30,09,23,13.80
2008,09,30,09,24,13.90
2008,09,30,09,25,13.90
2008,09,30,09,26,14.00
2008,09,30,09,27,14.00
2008,09,30,09,28,14.10
2008,09,30,09,29,14.20
2008,09,30,09,30,14.30
2008,09,30,09,31,14.40
2008,09,30,09,32,14.50
2008,09,30,09,33,14.60
2008,09,30,09,34,14.60
2008,09,30,09,35,14.70
2008,09,30,09,36,14.80
2008,09,30,09,37,14.80
2008,09,30,09,38,14.80
2008,09,30,09,39,14.90
2008,09,30,09,40,14.90
2008,09,30,09,41,15.00
2008,09,30,09,42,15.10
2008,09,30,09,43,15.10
2008,09,30,09,44,15.20
2008,09,30,09,45,15.20
2008,09,30,09,46,15.30
2008,09,30,09,47,15.30
2008,09,30,09,48,15.50
2008,09,30,09,49,15.50
2008,09,30,09,50,15.60
2008,09,30,09,51,15.60
2008,09,30,09,52,15.70
2008,09,30,09,53,15.70
2008,09,30,09,54,15.80
2008,09,30,09,55,15.80
2008,09,30,09,56,15.90
2008,09,30,09,57,16.00
2008,09,30,09,58,16.20
2008,09,30,09,59,16.30
2008,09,30,10,00,16.40
2008,09,30,10,01,16.50
2008,09,30,10,02,16.60
2008,09,30,10,03,16.70
2008,09,30,10,04,16.80
2008,09,30,10,05,16.90
2008,09,30,10,06,17.00
2008,09,30,10,07,17.10
2008,09,30,10,08,17.10
2008,09,30,10,09,17.20
2008,09,30,10,10,17.20
2008,09,30,10,11,17.30
2008,09,30,10,12,17.30
2008,09,30,10,13,17.40
2008,09,30,10,14,17.40
2008,09,30,10,15,17.40
2008,09,30,10,16,17.40
2008,09,30,10,17,17.40
2008,09,30,10,18,17.50
2008,09,30,10,19,17.60
2008,09,30,10,20,17.70
2008,09,30,10,21,17.80
2008,09,30,10,22,17.90
2008,09,30,10,23,18.00
2008,09,30,10,24,18.10
2008,09,30,10,25,18.20
2008,09,30,10,26,18.20
2008,09,30,10,27,18.20
2008,09,30,10,28,18.20
2008,09,30,10,29,18.20
2008,09,30,10,30,18.20
2008,09,30,10,31,18.20
2008,09,30,10,32,18.20
2008,09,30,10,33,18.20
2008,09,30,10,34,18.10
2008,09,30,10,35,18.10
2008,09,30,10,36,17.90
2008,09,30,10,37,17.90
2008,09,30,10,38,17.90
2008,09,30,10,39,17.90
2008,09,30,10,40,18.00
2008,09,30,10,41,18.10
2008,09,30,10,42,18.20
2008,09,30,10,43,18.20
2008,09,30,10,44,18.20
2008,09,30,10,45,18.20
2008,09,30,10,46,18.30
2008,09,30,10,47,18.30
2008,09,30,10,48,18.40
2008,09,30,10,49,18.40
2008,09,30,10,50,18.50
2008,09,30,10,51,18.60
2008,09,30,10,52,18.60
2008,09,30,10,53,18.70
2008,09,30,10,54,18.70
2008,09,30,10,55,18.70
2008,09,30,10,56,18.70
2008,09,30,10,57,18.70
2008,09,30,10,58,18.80
2008,09,30,10,59,18.80
2008,09,30,11,00,18.70
2008,09,30,11,01,18.70
2008,09,30,11,02,18.70
2008,09,30,11,03,18.70
2008,09,30,11,04,18.70
2008,09,30,11,05,18.70
2008,09,30,11,06,18.80
2008,09,30,11,07,18.80
2008,09,30,11,08,18.80
2008,09,30,11,09,18.80
2008,09,30,11,10,18.80
2008,09,30,11,11,18.80
2008,09,30,11,12,18.90
2008,09,30,11,13,18.90
2008,09,30,11,14,18.90
2008,09,30,11,15,18.90
2008,09,30,11,16,18.90
2008,09,30,11,17,18.90
2008,09,30,11,18,18.90
2008,09,30,11,19,18.90
2008,09,30,11,20,18.90
2008,09,30,11,21,18.90
2008,09,30,11,22,18.90
2008,09,30,11,23,19.10
2008,09,30,11,24,19.10
2008,09,30,11,25,19.10
2008,09,30,11,26,19.20
2008,09,30,11,27,19.30
2008,09,30,11,28,19.30
2008,09,30,11,29,19.30
2008,09,30,11,30,19.30
2008,09,30,11,31,19.40
2008,09,30,11,32,19.40
2008,09,30,11,33,19.40
2008,09,30,11,34,19.50
2008,09,30,11,35,19.50
2008,09,30,11,36,19.50
2008,09,30,11,37,19.50
2008,09,30,11,38,19.50
2008,09,30,11,39,19.50
2008,09,30,11,40,19.50
2008,09,30,11,41,19.50
2008,09,30,11,42,19.40
2008,09,30,11,43,19.40
2008,09,30,11,44,19.30
2008,09,30,11,45,19.30
2008,09,30,11,46,19.20
2008,09,30,11,47,19.10
2008,09,30,11,48,19.10
2008,09,30,11,49,19.10
2008,09,30,11,50,19.10
2008,09,30,11,51,19.10
2008,09,30,11,52,19.10
2008,09,30,11,53,19.10
2008,09,30,11,54,18.90
2008,09,30,11,55,18.90
2008,09,30,11,56,18.90
2008,09,30,11,57,18.90
2008,09,30,11,58,18.90
2008,09,30,11,59,18.90
2008,09,30,12,00,18.90
2008,09,30,12,01,18.90
2008,09,30,12,02,18.90
2008,09,30,12,03,18.90
2008,09,30,12,04,18.90
2008,09,30,12,05,18.90
2008,09,30,12,06,18.90
2008,09,30,12,07,18.80
2008,09,30,12,08,18.70
2008,09,30,12,09,18.50
2008,09,30,12,10,18.40
2008,09,30,12,11,18.20
2008,09,30,12,12,18.20
2008,09,30,12,13,18.00
2008,09,30,12,14,17.90
2008,09,30,12,15,17.90
2008,09,30,12,16,17.90
2008,09,30,12,17,17.90
2008,09,30,12,18,17.90
2008,09,30,12,19,17.90
2008,09,30,12,20,17.90
2008,09,30,12,21,18.00
2008,09,30,12,22,18.20
2008,09,30,12,23,18.20
2008,09,30,12,24,18.20
2008,09,30,12,25,18.20
2008,09,30,12,26,18.30
2008,09,30,12,27,18.40
2008,09,30,12,28,18.50
2008,09,30,12,29,18.60
2008,09,30,12,30,18.70
2008,09,30,12,31,18.80
2008,09,30,12,32,18.80
2008,09,30,12,33,18.90
2008,09,30,12,34,18.90
2008,09,30,12,35,19.00
2008,09,30,12,36,19.10
2008,09,30,12,37,19.20
2008,09,30,12,38,19.30
2008,09,30,12,39,19.40
2008,09,30,12,40,19.50
2008,09,30,12,41,19.60
2008,09,30,12,42,19.60
2008,09,30,12,43,19.60
2008,09,30,12,44,19.60
2008,09,30,12,45,19.60
2008,09,30,12,46,19.60
2008,09,30,12,47,19.60
2008,09,30,12,48,19.50
2008,09,30,12,49,19.50
2008,09,30,12,50,19.50
2008,09,30,12,51,19.60
2008,09,30,12,52,19.60
2008,09,30,12,53,19.60
2008,09,30,12,54,19.60
2008,09,30,12,55,19.60
2008,09,30,12,56,19.60
2008,09,30,12,57,19.60
2008,09,30,12,58,19.70
2008,09,30,12,59,19.80
2008,09,30,13,00,19.80
2008,09,30,13,01,19.80
2008,09,30,13,02,19.80
2008,09,30,13,03,19.80
2008,09,30,13,04,19.70
2008,09,30,13,05,19.70
2008,09,30,13,06,19.60
2008,09,30,13,07,19.60
2008,09,30,13,08,19.50
2008,09,30,13,09,19.50
2008,09,30,13,10,19.50
2008,09,30,13,11,19.50
2008,09,30,13,12,19.50
2008,09,30,13,13,19.50
2008,09,30,13,14,19.50
2008,09,30,13,15,19.50
2008,09,30,13,16,19.50
2008,09,30,13,17,19.60
2008,09,30,13,18,19.60
2008,09,30,13,19,19.70
2008,09,30,13,20,19.70
2008,09,30,13,21,19.70
2008,09,30,13,22,19.70
2008,09,30,13,23,19.80
2008,09,30,13,24,19.80
2008,09,30,13,25,19.80
2008,09,30,13,26,19.90
2008,09,30,13,27,19.90
2008,09,30,13,28,19.90
2008,09,30,13,29,19.90
2008,09,30,13,30,19.90
2008,09,30,13,31,19.90
2008,09,30,13,32,19.90
2008,09,30,13,33,19.90
2008,09,30,13,34,20.10
2008,09,30,13,35,20.10
2008,09,30,13,36,20.10
2008,09,30,13,37,20.10
2008,09,30,13,38,20.10
2008,09,30,13,39,20.00
2008,09,30,13,40,19.90
2008,09,30,13,41,19.90
2008,09,30,13,42,19.90
2008,09,30,13,43,19.90
2008,09,30,13,44,19.80
2008,09,30,13,45,19.80
2008,09,30,13,46,19.80
2008,09,30,13,47,19.90
2008,09,30,13,48,19.90
2008,09,30,13,49,19.90
2008,09,30,13,50,19.90
2008,09,30,13,51,20.00
2008,09,30,13,52,20.10
2008,09,30,13,53,20.10
2008,09,30,13,54,20.10
2008,09,30,13,55,20.10
2008,09,30,13,56,20.00
2008,09,30,13,57,19.90
2008,09,30,13,58,19.90
2008,09,30,13,59,19.90
2008,09,30,14,00,19.90
2008,09,30,14,01,20.00
2008,09,30,14,02,20.10
2008,09,30,14,03,20.20
2008,09,30,14,04,20.20
2008,09,30,14,05,20.30
2008,09,30,14,06,20.50
2008,09,30,14,07,20.60
2008,09,30,14,08,20.60
2008,09,30,14,09,20.70
2008,09,30,14,10,20.70
2008,09,30,14,11,20.80
2008,09,30,14,12,20.90
2008,09,30,14,13,20.90
2008,09,30,14,14,21.00
2008,09,30,14,15,21.00
2008,09,30,14,16,21.00
2008,09,30,14,17,21.00
2008,09,30,14,18,21.00
2008,09,30,14,19,21.10
2008,09,30,14,20,21.10
2008,09,30,14,21,21.10
2008,09,30,14,22,21.10
2008,09,30,14,23,21.00
2008,09,30,14,24,21.00
2008,09,30,14,25,20.90
2008,09,30,14,26,20.90
2008,09,30,14,27,20.80
2008,09,30,14,28,20.70
2008,09,30,14,29,20.70
2008,09,30,14,30,20.60
2008,09,30,14,31,20.60
2008,09,30,14,32,20.60
2008,09,30,14,33,20.60
2008,09,30,14,34,20.60
2008,09,30,14,35,20.60
2008,09,30,14,36,20.50
2008,09,30,14,37,20.40
2008,09,30,14,38,20.40
2008,09,30,14,39,20.30
2008,09,30,14,40,20.20
2008,09,30,14,41,20.20
2008,09,30,14,42,20.20
2008,09,30,14,43,20.20
2008,09,30,14,44,20.10
2008,09,30,14,45,20.10
2008,09,30,14,46,19.90
2008,09,30,14,47,19.90
2008,09,30,14,48,19.90
2008,09,30,14,49,19.90
2008,09,30,14,50,19.90
2008,09,30,14,51,19.80
2008,09,30,14,52,19.80
2008,09,30,14,53,19.80
2008,09,30,14,54,19.70
2008,09,30,14,55,19.70
2008,09,30,14,56,19.80
2008,09,30,14,57,19.80
2008,09,30,14,58,19.70
2008,09,30,14,59,19.70
2008,09,30,15,00,19.70
2008,09,30,15,01,19.70
2008,09,30,15,02,19.70
2008,09,30,15,03,19.70
2008,09,30,15,04,19.70
2008,09,30,15,05,19.70
2008,09,30,15,06,19.80
2008,09,30,15,07,19.80
2008,09,30,15,08,19.90
2008,09,30,15,09,19.90
2008,09,30,15,10,19.90
2008,09,30,15,11,19.90
2008,09,30,15,12,19.90
2008,09,30,15,13,19.90
2008,09,30,15,14,19.90
2008,09,30,15,15,20.00
2008,09,30,15,16,20.10
2008,09,30,15,17,20.20
2008,09,30,15,18,20.20
2008,09,30,15,19,20.20
2008,09,30,15,20,20.20
2008,09,30,15,21,20.20
2008,09,30,15,22,20.20
2008,09,30,15,23,20.30
2008,09,30,15,24,20.20
2008,09,30,15,25,20.20
2008,09,30,15,26,20.20
2008,09,30,15,27,20.20
2008,09,30,15,28,20.20
2008,09,30,15,29,20.20
2008,09,30,15,30,20.10
2008,09,30,15,31,19.90
2008,09,30,15,32,19.90
2008,09,30,15,33,19.90
2008,09,30,15,34,19.80
2008,09,30,15,35,19.80
2008,09,30,15,36,19.80
2008,09,30,15,37,19.70
2008,09,30,15,38,19.70
2008,09,30,15,39,19.70
2008,09,30,15,40,19.60
2008,09,30,15,41,19.60
2008,09,30,15,42,19.60
2008,09,30,15,43,19.60
2008,09,30,15,44,19.50
2008,09,30,15,45,19.50
2008,09,30,15,46,19.50
2008,09,30,15,47,19.60
2008,09,30,15,48,19.60
2008,09,30,15,49,19.60
2008,09,30,15,50,19.60
2008,09,30,15,51,19.60
2008,09,30,15,52,19.50
2008,09,30,15,53,19.40
2008,09,30,15,54,19.30
2008,09,30,15,55,19.30
2008,09,30,15,56,19.20
2008,09,30,15,57,19.20
2008,09,30,15,58,19.10
2008,09,30,15,59,19.10
2008,09,30,16,00,19.10
2008,09,30,16,01,19.10
2008,09,30,16,02,19.00
2008,09,30,16,03,18.90
2008,09,30,16,04,18.90
2008,09,30,16,05,18.90
2008,09,30,16,06,18.90
2008,09,30,16,07,18.90
2008,09,30,16,08,18.90
2008,09,30,16,09,18.90
2008,09,30,16,10,18.90
2008,09,30,16,11,18.90
2008,09,30,16,12,18.90
2008,09,30,16,13,18.90
2008,09,30,16,14,18.90
2008,09,30,16,15,18.90
2008,09,30,16,16,18.90
2008,09,30,16,17,18.90
2008,09,30,16,18,18.90
2008,09,30,16,19,19.00
2008,09,30,16,20,19.10
2008,09,30,16,21,19.10
2008,09,30,16,22,19.10
2008,09,30,16,23,19.10
2008,09,30,16,24,19.10
2008,09,30,16,25,19.10
2008,09,30,16,26,19.10
2008,09,30,16,27,19.10
2008,09,30,16,28,19.10
2008,09,30,16,29,19.10
2008,09,30,16,30,19.20
2008,09,30,16,31,19.20
2008,09,30,16,32,19.20
2008,09,30,16,33,19.20
2008,09,30,16,34,19.20
2008,09,30,16,35,19.10
2008,09,30,16,36,19.10
2008,09,30,16,37,19.10
2008,09,30,16,38,19.10
2008,09,30,16,39,19.10
2008,09,30,16,40,19.10
2008,09,30,16,41,19.10
2008,09,30,16,42,19.10
2008,09,30,16,43,19.10
2008,09,30,16,44,19.10
2008,09,30,16,45,19.10
2008,09,30,16,46,19.10
2008,09,30,16,47,19.10
2008,09,30,16,48,19.10
2008,09,30,16,49,19.10
2008,09,30,16,50,19.10
2008,09,30,16,51,19.10
2008,09,30,16,52,19.10
2008,09,30,16,53,19.10
2008,09,30,16,54,19.10
2008,09,30,16,55,19.10
2008,09,30,16,56,19.10
2008,09,30,16,57,19.00
2008,09,30,16,58,18.90
2008,09,30,16,59,18.90
2008,09,30,17,00,18.90
2008,09,30,17,01,18.90
2008,09,30,17,02,18.90
2008,09,30,17,03,18.90
2008,09,30,17,04,18.90
2008,09,30,17,05,18.90
2008,09,30,17,06,18.90
2008,09,30,17,07,18.90
2008,09,30,17,08,18.90
2008,09,30,17,09,18.90
2008,09,30,17,10,18.90
2008,09,30,17,11,18.90
2008,09,30,17,12,18.90
2008,09,30,17,13,18.90
2008,09,30,17,14,18.90
2008,09,30,17,15,18.90
2008,09,30,17,16,18.90
2008,09,30,17,17,18.90
2008,09,30,17,18,18.80
2008,09,30,17,19,18.80
2008,09,30,17,20,18.80
2008,09,30,17,21,18.70
2008,09,30,17,22,18.70
2008,09,30,17,23,18.60
2008,09,30,17,24,18.60
2008,09,30,17,25,18.60
2008,09,30,17,26,18.60
2008,09,30,17,27,18.50
2008,09,30,17,28,18.50
2008,09,30,17,29,18.50
2008,09,30,17,30,18.50